Location: Morisset
(33.1080°S, 151.4871°E)
Time: 08:23:51
(UTC+00:00)

Milstar 3 Cent rocket - Pass Details

Date: 29 October 2020
Orbit: 708 x 5145 km, 28.3° (Epoch: 27 November)

Event Time Altitude Azimuth Distance (km) Brightness Sun altitude
Exits shadow 16:01:59 26° 42° (NE) 2,086 4.1 -31.9°
Drops below altitude 10° 16:06:18 10° 59° (ENE) 3,638 5.6 -31.2°
Sets 16:10:42 0° 64° (ENE) 5,259 6.5 -30.6°
